TOURFACTS.DK  
Stats and Facts from Tour de France.

Tour de France 2019 starts in 320 days
  Riders   Stages   Teams   Summits   Yearly  


 
Search by year

After 2018 - Stage 21:
 15000 starters.
  5165 different riders.
  638 teams.
  2253 stages.
  456 restdays.
  442940.60 km.
  5684 abandonnees.


Top 3
GC
Geraint Thomas83:17:13
Tom Dumoulin83:19:04
Christopher Froome83:19:37
Climb
Julian Alaphilippe170 pt.
Warren Barguil91 pt.
Rafal Majka76 pt.
Sprint
Peter Sagan477 pt.
Alexander Kristoff246 pt.
Arnaud Démare203 pt.
Youth
Pierre-Roger Latou..83:39:26
Egan Bernal83:45:05
Guillaume Martin84:01:31
Facts from Tour de France 2015
  |   Stages.  |   Stage winners.  |   Days in yellow  |   Average speed.  |   Route.  |   Teams.  |   All riders.  |   Rookies.  |  

  |   Withdrawls.  |   GC.  |   Polka  |   Green  |   White  |   Summits. (In tour)  |   Miscellaneous.  |  

Stage 19 on 24 - 07 - 2015
         Owning:    Christopher Froome      Joaquim Rodriguez      Peter Sagan      Nairo Quintana  

Pick a stage:  1 2 3 4 5 6 7 8 9 10 11 12 13 14 15 16 17 18 19 20 21
  Saint-Jean-de-MaurienneLa Toussuire | Dist: 138.00 km.
Cat: 1Col de ChaussyESPJoaquim Rodriguez10 points 
Cat: HCol de la Croix de FerFRAPierre Rolland25 points 
Cat: 2Col du MollardFRAPierre Rolland5 points 
Cat: 1La ToussuireITAVincenzo Nibali20 points 

Average speed for all riders in stage:  28,936 km./hr.
    Place:Name:Team:Time:Km/h:
1
ITAVincenzo NibaliKAZAstana Pro Team04:22:53  +  00:00:00=31,497 
2
COLNairo QuintanaESPMovistar Team04:23:37  +  00:00:44=31,409 
3
KENChristopher FroomeGBRSky Procycling04:24:07  +  00:01:14=31,350 
44 FRAThibaut PinotFRAFDJ04:25:19  +  00:02:26=31,208 
55 FRARomain BardetFRAAg2r La Mondiale04:25:19  +  00:02:26=31,208 
66 ESPAlejandro ValverdeESPMovistar Team04:25:19  +  00:02:26=31,208 
77 NEDBauke MollemaUSATrek Factory Racing04:25:19  +  00:02:26=31,208 
88 NEDRobert GesinkNLDTeam Lotto NL - Jumbo04:25:19  +  00:02:26=31,208 
99 ESPAlberto ContadorRUSTinkoff Saxo04:25:19  +  00:02:26=31,208 
1010 ESPSamuel SanchezUSABMC Racing Team04:25:19  +  00:02:26=31,208 
1111 FRAPierre RollandFRATeam Europcar04:25:28  +  00:02:35=31,190 
1212 USAAndrew TalanskyUSATeam Cannondale - Garmin04:27:10  +  00:04:17=30,992 
1313 ESPRubén PlazaITALampre-Merida04:27:46  +  00:04:53=30,922 
1414 SUIMathias FrankCHEIAM Cycling04:27:55  +  00:05:02=30,905 
1515 POLRafal MajkaRUSTinkoff Saxo04:27:55  +  00:05:02=30,905 
1616 NEDWout PoelsGBRSky Procycling04:29:16  +  00:06:23=30,750 
1717 CZERoman KreuzigerRUSTinkoff Saxo04:30:58  +  00:08:05=30,557 
1818 ITAMichele ScarponiKAZAstana Pro Team04:30:58  +  00:08:05=30,557 
1919 FRACyril GautierFRATeam Europcar04:30:58  +  00:08:05=30,557 
2020 NEDSteven KruijswijkNLDTeam Lotto NL - Jumbo04:30:58  +  00:08:05=30,557 
2121 BELSerge PauwelsZAFMTN - Qhubeka P/B Samsung04:32:45  +  00:09:52=30,357 
2222 ESPJosé Herrada LópezESPMovistar Team04:33:46  +  00:10:53=30,245 
2323 FRAAlexis VuillermozFRAAg2r La Mondiale04:34:34  +  00:11:41=30,157 
2424 CZEJan BártaDEUBora-Argon 1804:34:34  +  00:11:41=30,157 
2525 FRAMickaël CherelFRAAg2r La Mondiale04:34:34  +  00:11:41=30,157 
2626 ERIMerhawi GhebremedhinZAFMTN - Qhubeka P/B Samsung04:34:34  +  00:11:41=30,157 
2727 FRAPierrick FédrigoFRABretagne - Séché Environnement04:35:46  +  00:12:53=30,025 
2828 URSTanel KangertKAZAstana Pro Team04:35:56  +  00:13:03=30,007 
2929 FRARomain SicardFRATeam Europcar04:36:48  +  00:13:55=29,913 
3030 FRAWarren BarguilDEUTeam Giant Alpecin04:37:55  +  00:15:02=29,793 
3131 NEDStef ClementCHEIAM Cycling04:38:05  +  00:15:12=29,775 
3232 FRASylvain ChavanelCHEIAM Cycling04:38:05  +  00:15:12=29,775 
3333 ERIDaniel TeklehaimanotZAFMTN - Qhubeka P/B Samsung04:38:05  +  00:15:12=29,775 
3434 COLJarlinson Pantano GomezCHEIAM Cycling04:38:05  +  00:15:12=29,775 
3535 LUXBob JungelsUSATrek Factory Racing04:44:06  +  00:21:13=29,145 
3636 ENGDaniel MartinUSATeam Cannondale - Garmin04:44:06  +  00:21:13=29,145 
3737 BELThomas De GendtBELLotto Soudal04:44:53  +  00:22:00=29,065 
3838 AUSMichael RogersRUSTinkoff Saxo04:44:53  +  00:22:00=29,065 
3939 AUSAdam HansenBELLotto Soudal04:44:53  +  00:22:00=29,065 
4040 SUIReto HollensteinCHEIAM Cycling04:44:53  +  00:22:00=29,065 
4141 FRAAnthony DelaplaceFRABretagne - Séché Environnement04:44:53  +  00:22:00=29,065 
4242 GERPaul VossDEUBora-Argon 1804:44:53  +  00:22:00=29,065 
4343 SUIMichael SchärUSABMC Racing Team04:44:53  +  00:22:00=29,065 
4444 SUIDanilo WyssUSABMC Racing Team04:44:53  +  00:22:00=29,065 
4545 FRANicolas EdetFRACofidis – Solutions Crédits04:44:53  +  00:22:00=29,065 
4646 ITADamiano CarusoUSABMC Racing Team04:44:53  +  00:22:00=29,065 
4747 ESPRafael Valls FerriITALampre-Merida04:44:53  +  00:22:00=29,065 
4848 FRABryan CoquardFRATeam Europcar04:44:53  +  00:22:00=29,065 
4949 FRAAngelo TulikFRATeam Europcar04:44:53  +  00:22:00=29,065 
5050 ESPJoaquim RodriguezRUSTeam Katusha04:44:53  +  00:22:00=29,065 
5151 SVKPeter SaganRUSTinkoff Saxo04:44:53  +  00:22:00=29,065 
5252 ENGStephen CummingsZAFMTN - Qhubeka P/B Samsung04:44:53  +  00:22:00=29,065 
5353 WALGeraint ThomasGBRSky Procycling04:44:53  +  00:22:00=29,065 
5454 BELJan BakelantsFRAAg2r La Mondiale04:44:53  +  00:22:00=29,065 
5555 COLRigoberto UránBELEtixx - Quick Step04:44:53  +  00:22:00=29,065 
5656 CANRyder HesjedalUSATeam Cannondale - Garmin04:44:53  +  00:22:00=29,065 
5757 RSAJacques Janse Van RensburgZAFMTN - Qhubeka P/B Samsung04:44:53  +  00:22:00=29,065 
5858 FRAPerrig QuemeneurFRATeam Europcar04:45:32  +  00:22:39=28,998 
5959 DENLars BakBELLotto Soudal04:47:10  +  00:24:17=28,833 
6060 PORNelson OliveiraITALampre-Merida04:48:23  +  00:25:30=28,712 
6161 CZELeopold KönigGBRSky Procycling04:48:23  +  00:25:30=28,712 
6262 BELStijn DevolderUSATrek Factory Racing04:48:49  +  00:25:56=28,669 
6363 FRAGeoffrey SoupeFRACofidis – Solutions Crédits04:50:34  +  00:27:41=28,496 
6464 SUIMarcel WyssCHEIAM Cycling04:51:29  +  00:28:36=28,406 
6565 AUSRohan DennisUSABMC Racing Team04:51:29  +  00:28:36=28,406 
6666 SUIMartin ElmigerCHEIAM Cycling04:51:29  +  00:28:36=28,406 
6767 ITADaniel OssUSABMC Racing Team04:51:29  +  00:28:36=28,406 
6868 NEDDylan Van BaarleUSATeam Cannondale - Garmin04:51:29  +  00:28:36=28,406 
6969 FRAAlexandre GeniezFRAFDJ04:51:29  +  00:28:36=28,406 
7070 FRAThomas VoecklerFRATeam Europcar04:51:29  +  00:28:36=28,406 
7171 FRABryan NauleauFRATeam Europcar04:51:29  +  00:28:36=28,406 
7272 ITAGiampaolo CarusoRUSTeam Katusha04:51:29  +  00:28:36=28,406 
7373 ITAMatteo TosattoRUSTinkoff Saxo04:51:29  +  00:28:36=28,406 
7474 ESPHaimar ZubeldiaUSATrek Factory Racing04:51:29  +  00:28:36=28,406 
7575 NEDKoen De KortDEUTeam Giant Alpecin04:51:29  +  00:28:36=28,406 
7676 FRAMatthieu LadagnousFRAFDJ04:51:29  +  00:28:36=28,406 
7777 ITAAdriano MaloriESPMovistar Team04:51:29  +  00:28:36=28,406 
7878 WALLuke RoweGBRSky Procycling04:51:29  +  00:28:36=28,406 
7979 FRAJulien SimonFRACofidis – Solutions Crédits04:51:29  +  00:28:36=28,406 
8080 FRAJérémy RoyFRAFDJ04:51:29  +  00:28:36=28,406 
8181 KAZDmitriy GruzdevKAZAstana Pro Team04:51:29  +  00:28:36=28,406 
8282 FRABenoit VaugrenardFRAFDJ04:51:29  +  00:28:36=28,406 
8383 BELSep VanmarckeNLDTeam Lotto NL - Jumbo04:51:29  +  00:28:36=28,406 
8484 SUIJakob FuglsangKAZAstana Pro Team04:51:29  +  00:28:36=28,406 
8585 ESPDaniel NavarroFRACofidis – Solutions Crédits04:51:29  +  00:28:36=28,406 
8686 NEDRoy CurversDEUTeam Giant Alpecin04:51:29  +  00:28:36=28,406 
8787 BELJens DebusschereBELLotto Soudal04:51:29  +  00:28:36=28,406 
8888 PORTiago PintoRUSTeam Katusha04:51:29  +  00:28:36=28,406 
8989 SLOKristjan KorenUSATeam Cannondale - Garmin04:51:29  +  00:28:36=28,406 
9090 AUTGeorg PreidlerDEUTeam Giant Alpecin04:51:29  +  00:28:36=28,406 
9191 FRAJean-Christophe PeraudFRAAg2r La Mondiale04:51:29  +  00:28:36=28,406 
9292 UKRAndriy GrivkoKAZAstana Pro Team04:51:29  +  00:28:36=28,406 
9393 GERSimon GeschkeDEUTeam Giant Alpecin04:51:29  +  00:28:36=28,406 
9494 FRAFrédéric BrunFRABretagne - Séché Environnement04:51:29  +  00:28:36=28,406 
9595 ITAMatteo BonoITALampre-Merida04:51:29  +  00:28:36=28,406 
9696 NEDAlbert TimmerDEUTeam Giant Alpecin04:51:29  +  00:28:36=28,406 
9797 GEREmanuel BuchmannDEUBora-Argon 1804:51:29  +  00:28:36=28,406 
9898 HRVKristijan DurasekITALampre-Merida04:51:29  +  00:28:36=28,406 
9999 ITAManuel QuinziatoUSABMC Racing Team04:51:29  +  00:28:36=28,406 
100100 ESPAlberto LosadaRUSTeam Katusha04:51:29  +  00:28:36=28,406 
101101 ESPLuis Angel MateFRACofidis – Solutions Crédits04:51:29  +  00:28:36=28,406 
102102 ITAFilippo PozzatoITALampre-Merida04:51:29  +  00:28:36=28,406 
103103 GERJohn DegenkolbDEUTeam Giant Alpecin04:51:29  +  00:28:36=28,406 
104104 ENGAdam YatesAUSOrica - GreenEDGE04:51:29  +  00:28:36=28,406 
105105 AUSRichie PorteGBRSky Procycling04:51:29  +  00:28:36=28,406 
106106 FRAYohann GèneFRATeam Europcar04:51:29  +  00:28:36=28,406 
107107 COLJulián ArredondoUSATrek Factory Racing04:51:29  +  00:28:36=28,406 
108108 FRANicolas RocheGBRSky Procycling04:51:29  +  00:28:36=28,406 
109109 ENGIan StannardGBRSky Procycling04:51:29  +  00:28:36=28,406 
110110 NEDLieuwe WestraKAZAstana Pro Team04:51:29  +  00:28:36=28,406 
111111 FRABrice FeilluFRABretagne - Séché Environnement04:51:29  +  00:28:36=28,406 
112112 BELTim WellensBELLotto Soudal04:51:29  +  00:28:36=28,406 
113113 NEDPieter WeeningAUSOrica - GreenEDGE04:51:36  +  00:28:43=28,395 
114114 CZEZdenek StybarBELEtixx - Quick Step04:52:05  +  00:29:12=28,348 
115115 BELJulien VermoteBELEtixx - Quick Step04:52:05  +  00:29:12=28,348 
116116 FRAArnaud GérardFRABretagne - Séché Environnement04:52:05  +  00:29:12=28,348 
117117 SUIGregory RastUSATrek Factory Racing04:52:05  +  00:29:12=28,348 
118118 FRAPierre-Luc PérichonFRABretagne - Séché Environnement04:52:05  +  00:29:12=28,348 
119119 IOMMark CavendishBELEtixx - Quick Step04:52:05  +  00:29:12=28,348 
120120 NEDWilco KeldermanNLDTeam Lotto NL - Jumbo04:52:05  +  00:29:12=28,348 
121121 ESPMarkel IrizarUSATrek Factory Racing04:52:05  +  00:29:12=28,348 
122122 COLJosé SerpaITALampre-Merida04:52:05  +  00:29:12=28,348 
123123 FRAChristophe LaporteFRACofidis – Solutions Crédits04:52:05  +  00:29:12=28,348 
124124 FRAFlorian SénéchalFRACofidis – Solutions Crédits04:52:05  +  00:29:12=28,348 
125125 AUSMichael MatthewsAUSOrica - GreenEDGE04:52:05  +  00:29:12=28,348 
126126 FRAArmindo FonsecaFRABretagne - Séché Environnement04:52:05  +  00:29:12=28,348 
127127 FRAFlorian VachonFRABretagne - Séché Environnement04:52:05  +  00:29:12=28,348 
128128 ESPImanol ErvitiESPMovistar Team04:52:05  +  00:29:12=28,348 
129129 RSAReinardt Janse Van RensburgZAFMTN - Qhubeka P/B Samsung04:52:05  +  00:29:12=28,348 
130130 GERPaul MartensNLDTeam Lotto NL - Jumbo04:52:05  +  00:29:12=28,348 
131131 NEDJos Van EmdenNLDTeam Lotto NL - Jumbo04:52:05  +  00:29:12=28,348 
132132 FRASébastien ChavanelFRAFDJ04:52:05  +  00:29:12=28,348 
133133 URSRamunas NavardauskasUSATeam Cannondale - Garmin04:52:05  +  00:29:12=28,348 
134134 AUTMarco HallerRUSTeam Katusha04:52:05  +  00:29:12=28,348 
135135 ITAMatteo TrentinBELEtixx - Quick Step04:52:05  +  00:29:12=28,348 
136136 NEDBram TankinkNLDTeam Lotto NL - Jumbo04:52:05  +  00:29:12=28,348 
137137 PORJosé João PimentaDEUBora-Argon 1804:52:05  +  00:29:12=28,348 
138138 POLMichal GolasBELEtixx - Quick Step04:52:05  +  00:29:12=28,348 
139139 NEDLaurens ten DamNLDTeam Lotto NL - Jumbo04:52:05  +  00:29:12=28,348 
140140 FRAArnaud DémareFRAFDJ04:52:05  +  00:29:12=28,348 
141141 ESPJonathan CastroviejoESPMovistar Team04:52:05  +  00:29:12=28,348 
142142 NOREdvald Boasson HagenZAFMTN - Qhubeka P/B Samsung04:52:05  +  00:29:12=28,348 
143143 FRATony GallopinBELLotto Soudal04:52:05  +  00:29:12=28,348 
144144 AUSLuke DurbridgeAUSOrica - GreenEDGE04:52:05  +  00:29:12=28,348 
145145 POLBartosz HuzarskiDEUBora-Argon 1804:52:05  +  00:29:12=28,348 
146146 GERMarcel SiebergBELLotto Soudal04:52:05  +  00:29:12=28,348 
147147 AUTMatthias BrändleCHEIAM Cycling04:52:05  +  00:29:12=28,348 
148148 ITADavide CimolaiITALampre-Merida04:52:05  +  00:29:12=28,348 
149149 ENGSimon YatesAUSOrica - GreenEDGE04:52:05  +  00:29:12=28,348 
150150 CANSvein TuftAUSOrica - GreenEDGE04:52:05  +  00:29:12=28,348 
151151 NEDTom LeezerNLDTeam Lotto NL - Jumbo04:52:05  +  00:29:12=28,348 
152152 USATyler FarrarZAFMTN - Qhubeka P/B Samsung04:52:05  +  00:29:12=28,348 
153153 FRAChristophe RiblonFRAAg2r La Mondiale04:52:05  +  00:29:12=28,348 
154154 GERAndré GreipelBELLotto Soudal04:52:05  +  00:29:12=28,348 
155155 ESPGorka Izaguirre InsaustiESPMovistar Team04:52:05  +  00:29:12=28,348 
156156 FRADamien GaudinFRAAg2r La Mondiale04:52:05  +  00:29:12=28,348 
157157 NORAlexander KristoffRUSTeam Katusha04:52:05  +  00:29:12=28,348 
158158 COLWinner AnaconaESPMovistar Team04:52:05  +  00:29:12=28,348 
159159 BELKenneth VanbilsenFRACofidis – Solutions Crédits04:52:05  +  00:29:12=28,348 
160160 ITAJacopo GuarnieriRUSTeam Katusha04:53:23  +  00:30:30=28,222 

Withdrawls: 1
 
Rider
Team
Reason
49  DENMichael ValgrenRUSTinkoff SaxoDid not finish
Todays birthdays.

1878  Jean Novo
1883  Jules Chabas
1890  Ange Aubry
1893  Roger Marye
1913  Paul Maye
1914  Lucien Vlaemynck
1915  Alphonse Antoine
1932  Rolf Graf
1953  Julio Rubiano
1959  Jos Haex
1959  Gerard Veldscholten
1963  Pablo Moreno
1964  Juan Castillo
1977  Iban Mayo
1994  Fernando Gaviria